Gainesville, FL

8:39 AM EST on November 23, 2017 (GMT -0500)
Gainesville Regional

Weather History for KGNV - August, 2013

Change the Weather History Date:

Monday, August 12, 2013

  Actual Average Record
Temperature  
Mean Temperature 85 °F 81 °F  
Max Temperature 96 °F 91 °F 98 °F (1951)
Min Temperature 74 °F 72 °F 65 °F (1989)
Degree Days  
Heating Degree Days 0 0  
Month to date heating degree days 0 0  
Since 1 June heating degree days 0 0  
Since 1 July heating degree days 0 0  
Cooling Degree Days 20 16  
Month to date cooling degree days 223 192  
Year to date cooling degree days 1742 1643  
Since 1 June cooling degree days 1210 1133  
Growing Degree Days 34 (Base 50)    
Moisture  
Dew Point 73 °F    
Average Humidity 70    
Maximum Humidity 94    
Minimum Humidity 45    
Precipitation  
Precipitation 0.17 in 0.21 in 1.99 in (1967)
Month to date precipitation 1.35 2.42  
Year to date precipitation 35.25 31.60  
Snow  
Snow 0.00 in 0.00 in 0.00 in ()
Month to date snowfall 0.0 0.0  
Since 1 June snowfall 0.0 0.0  
Since 1 July snowfall 0.0 0.0  
Snow Depth 0.00 in    
Sea Level Pressure  
Sea Level Pressure 30.07 in    
Wind  
Wind Speed 3 mph (ESE)    
Max Wind Speed 14 mph    
Max Gust Speed 18 mph    
Visibility 7 miles    
Events Rain , Thunderstorm    
T = Trace of Precipitation, MM = Missing Value Source: NWS Daily Summary

Daily Weather History Graph

Daily Weather History Graph

Search for Another Location

Airport or City:

Trip Planner

Search our weather history database for the weather conditions in past years. The results will help you decide how hot, cold, wet, or windy it might be!

Date:

Astronomy

Aug. 12, 2013 Rise Set
Actual Time 6:55 AM EDT 8:12 PM EDT
Civil Twilight 6:30 AM EDT 8:37 PM EDT
Nautical Twilight 6:00 AM EDT 9:07 PM EDT
Astronomical Twilight 5:28 AM EDT 9:38 PM EDT
Moon 12:13 PM EDT (8/12) 11:37 PM EDT (8/12)
Length of Visible Light 14h 07m
Length of Day
13h 17m
Waxing Crescent, 31% of the Moon is Illuminated
Aug 12
Waxing Crescent
Aug 14
First Quarter
Aug 20
Full
Aug 28
Last Quarter
Sep 5
New

Hourly Weather History & Observations

Time (EDT) Temp. Heat Index Dew Point Humidity Pressure Visibility Wind Dir Wind Speed Gust Speed Precip Events Conditions
12:53 AM 78.1 °F - 73.9 °F 87% 30.13 in 7.0 mi Calm Calm - N/A   Clear
1:53 AM 77.0 °F - 73.0 °F 88% 30.12 in 7.0 mi Calm Calm - N/A   Clear
2:53 AM 77.0 °F - 72.0 °F 84% 30.11 in 7.0 mi Calm Calm - N/A   Clear
3:53 AM 75.9 °F - 72.0 °F 87% 30.10 in 7.0 mi Calm Calm - N/A   Clear
4:53 AM 75.0 °F - 72.0 °F 90% 30.09 in 6.0 mi Calm Calm - N/A   Clear
5:53 AM 75.0 °F - 72.0 °F 90% 30.10 in 6.0 mi Calm Calm - N/A   Clear
6:53 AM 73.9 °F - 72.0 °F 93% 30.12 in 6.0 mi Calm Calm - N/A   Clear
7:53 AM 75.9 °F - 73.9 °F 94% 30.12 in 5.0 mi Calm Calm - N/A   Clear
8:53 AM 82.9 °F 90.8 °F 75.9 °F 79% 30.12 in 6.0 mi Calm Calm - N/A   Haze
9:53 AM 86.0 °F 96.0 °F 75.9 °F 72% 30.12 in 8.0 mi Calm Calm - N/A   Clear
10:53 AM 89.1 °F 97.0 °F 73.0 °F 59% 30.11 in 8.0 mi North 8.1 mph - N/A   Clear
11:53 AM 91.9 °F 100.7 °F 73.0 °F 54% 30.10 in 8.0 mi North 8.1 mph - N/A   Partly Cloudy
12:53 PM 91.9 °F 99.5 °F 72.0 °F 52% 30.09 in 8.0 mi Variable 4.6 mph - 0.00 in Rain Light Rain
1:53 PM 93.0 °F 100.7 °F 72.0 °F 50% 30.07 in 8.0 mi NW 3.5 mph - 0.00 in   Partly Cloudy
2:53 PM 93.0 °F 100.1 °F 71.1 °F 49% 30.05 in 9.0 mi Calm Calm - N/A   Partly Cloudy
3:53 PM 96.1 °F 104.9 °F 72.0 °F 46% 30.03 in 8.0 mi North 4.6 mph - N/A   Overcast
4:53 PM 93.9 °F 100.8 °F 71.1 °F 47% 30.01 in 8.0 mi Variable 4.6 mph - N/A   Clear
5:53 PM 93.9 °F 102.1 °F 72.0 °F 49% 29.99 in 8.0 mi Variable 3.5 mph - N/A   Clear
6:53 PM 91.9 °F 98.4 °F 71.1 °F 50% 30.00 in 8.0 mi South 4.6 mph - N/A   Partly Cloudy
7:53 PM 84.0 °F 89.6 °F 72.0 °F 67% 30.04 in 6.0 mi SE 3.5 mph - 0.00 in Rain Rain
8:08 PM 80.6 °F 86.2 °F 75.2 °F 84% 30.04 in 2.5 mi East 8.1 mph - 0.04 in Rain , Thunderstorm Heavy Thunderstorms and Rain
8:16 PM 78.8 °F - 73.4 °F 83% 30.05 in 1.5 mi ESE 13.8 mph - 0.15 in Rain , Thunderstorm Heavy Thunderstorms and Rain
8:22 PM 78.8 °F - 73.4 °F 83% 30.04 in 3.0 mi SE 11.5 mph - 0.16 in Rain , Thunderstorm Light Thunderstorms and Rain
8:49 PM 78.8 °F - 73.4 °F 83% 30.04 in 8.0 mi SE 9.2 mph - 0.17 in Rain Light Rain
8:53 PM 79.0 °F - 73.9 °F 84% 30.03 in 9.0 mi ESE 6.9 mph - 0.17 in Rain Light Rain
9:53 PM 79.0 °F - 73.9 °F 84% 30.06 in 5.0 mi South 4.6 mph - 0.00 in   Haze
10:53 PM 79.0 °F - 73.0 °F 82% 30.07 in 9.0 mi SSE 3.5 mph - 0.00 in   Mostly Cloudy
11:53 PM 77.0 °F - 73.9 °F 90% 30.05 in 8.0 mi Calm Calm - N/A   Clear